Вернуться в каталог

DELTA 1 DEB

АктивенSSO
NORAD 7058·DEBRIS·🇺🇸 United States

Запущен Nov 6, 1973 с Vandenberg Space Force Base

Loading…

Ближайшие Пролёты (ближайшие 24 часа)

TLE

СвежийSource: Space-Track

Эпоха: Sep 14, 2026, 05:22 UTC

1 07058U 73086BA  26257.22413523  .00000127  00000-0  10663-2 0  9996
2 07058 101.8516 245.7643 0001068 306.4679 122.0006 12.54932796410335

Отслеживайте DELTA 1 DEB в реальном времени с AllMySat

Download on the App Store